DB0RES-5 Weather Reports


time (UTC)temp
F
wind
direction
speed
knots
gust
knots
rain 1hr
in
rain 24hr
in
rain mn
in
humidity
%
barometer
mb
20260507033547 44 6 0.9 1.7 0.00 0.00 0.00 89 1014.8
20260507032545 44 24 0.9 3.5 0.00 0.00 0.00 89 1014.6
20260507031542 44 2 0.9 3.5 0.00 0.00 0.00 88 1014.5
20260507030540 44 0 0.9 5.2 0.00 0.00 0.00 88 1014.4
20260507025537 45 354 0.9 3.5 0.00 0.00 0.00 88 1014.6
20260507024535 45 5 0.9 3.5 0.00 0.00 0.00 88 1014.4
20260507023532 45 345 0.9 5.2 0.00 0.00 0.00 88 1014.4
20260507022529 45 357 0.9 3.5 0.00 0.00 0.00 87 1014.4
20260507021527 46 0 0.9 1.7 0.00 0.00 0.00 87 1014.2
20260507020524 46 7 1.7 3.5 0.00 0.00 0.00 87 1014.1
20260507015522 46 320 0.0 3.5 0.00 0.00 0.00 87 1014.1
20260507014519 46 1 0.0 3.5 0.00 0.00 0.00 87 1014.0
20260507013516 47 11 0.0 1.7 0.00 0.00 0.00 86 1014.0
20260507012614 47 309 0.0 1.7 0.00 0.00 0.00 85 1014.0
20260507011612 47 0 0.0 1.7 0.00 0.00 0.00 85 1013.9
20260507010609 47 7 0.9 3.5 0.00 0.00 0.00 85 1014.0
20260507005606 47 342 0.9 3.5 0.00 0.00 0.00 85 1013.8
20260507004604 47 0 0.9 3.5 0.00 0.00 0.00 85 1013.7
20260507003601 48 45 0.0 1.7 0.00 0.00 0.00 85 1013.9
20260507002559 48 352 0.0 1.7 0.00 0.00 0.00 85 1013.7
20260507001556 48 315 0.0 1.7 0.00 0.00 0.00 85 1013.7
20260507000554 48 0.0 1.7 0.00 0.00 0.00 85 1013.7
20260506235551 48 349 0.0 3.5 0.00 0.00 0.00 85 1013.6
20260506234548 48 342 0.9 3.5 0.00 0.00 0.00 85 1013.7
20260506233546 48 330 0.0 1.7 0.00 0.00 0.00 85 1013.5
20260506232543 48 0.0 1.7 0.00 0.00 0.00 84 1013.5
20260506231541 48 0.0 1.7 0.00 0.00 0.00 83 1013.4
20260506230538 49 0 0.0 1.7 0.00 0.00 0.00 83 1013.4
20260506225536 49 338 0.9 1.7 0.00 0.00 0.00 82 1013.3
20260506224533 49 314 0.9 1.7 0.00 0.00 0.00 82 1013.3
20260506223530 49 0.0 1.7 0.00 0.00 0.00 82 1013.3
20260506222528 49 0 0.0 3.5 0.00 0.00 0.00 83 1013.2
20260506221525 49 0.0 0.0 0.00 0.00 0.00 83 1013.3
20260506220523 49 23 0.0 1.7 0.00 0.00 0.00 83 1013.3
20260506215520 49 320 0.0 3.5 0.00 0.00 0.00 83 1013.2
20260506214518 49 16 0.9 1.7 0.00 0.00 0.00 84 1013.2
20260506213515 49 338 0.0 1.7 0.00 0.00 0.00 85 1013.1
20260506212613 48 343 0.0 1.7 0.00 0.00 0.00 86 1013.2
20260506211610 48 315 0.0 1.7 0.00 0.00 0.00 86 1013.2
20260506210608 48 338 0.0 1.7 0.00 0.00 0.00 86 1013.2
20260506205605 48 344 0.9 3.5 0.00 0.00 0.00 86 1013.1
20260506204602 48 315 0.0 1.7 0.00 0.00 0.00 86 1013.1
20260506203600 48 0.0 0.0 0.00 0.00 0.00 85 1013.1
20260506202557 48 315 0.0 1.7 0.00 0.00 0.00 85 1013.1
20260506201555 48 0.0 0.0 0.00 0.00 0.00 84 1012.9
20260506200552 48 0.0 0.0 0.00 0.00 0.00 83 1012.8
20260506195550 48 0.0 0.0 0.00 0.00 0.00 82 1012.7
20260506194547 49 0.0 0.0 0.00 0.00 0.00 81 1012.6
20260506193544 49 23 0.9 3.5 0.00 0.00 0.00 81 1012.6
20260506192542 49 23 0.9 3.5 0.00 0.00 0.00 81 1012.4
20260506191539 0 0.0 0.0 0.00 0.00 0.00 1012.4
20260506190537 49 0.0 1.7 0.00 0.00 0.00 80 1012.2
20260506185534 49 14 1.7 3.5 0.00 0.00 0.00 79 1012.1
20260506184532 49 6 0.9 3.5 0.00 0.00 0.00 79 1012.0
20260506183529 49 31 1.7 5.2 0.00 0.00 0.00 80 1012.1
20260506182527 49 23 3.5 6.1 0.00 0.00 0.00 80 1011.9
20260506181524 49 20 2.6 5.2 0.00 0.00 0.00 80 1011.8
20260506180521 49 29 2.6 7.8 0.00 0.00 0.00 80 1011.7
20260506175519 49 37 5.2 12.2 0.00 0.00 0.00 79 1011.5
20260506174516 49 41 4.3 12.2 0.00 0.00 0.00 81 1011.4
20260506173614 49 29 4.3 9.6 0.00 0.00 0.00 82 1011.3
20260506172611 49 31 2.6 6.1 0.00 0.00 0.00 84 1011.1
20260506171609 49 48 4.3 9.6 0.00 0.00 0.00 85 1011.2
20260506170606 49 21 2.6 9.6 0.00 0.00 0.00 86 1011.1
20260506165604 49 4 0.9 5.2 0.00 0.00 0.00 87 1011.0
20260506164601 49 13 1.7 6.1 0.00 0.00 0.00 87 1011.1
20260506163558 49 11 0.9 1.7 0.00 0.00 0.00 89 1011.0
20260506162556 48 29 1.7 5.2 0.00 0.00 0.00 90 1010.9
20260506161553 48 19 0.9 3.5 0.00 0.00 0.00 90 1010.9
20260506160551 48 0 2.6 7.0 0.00 0.00 0.00 89 1010.9
20260506155548 49 0 0.9 3.5 0.00 0.00 0.00 88 1010.9
20260506154546 49 11 1.7 7.8 0.00 0.00 0.00 87 1010.9
20260506153543 49 349 0.9 3.5 0.00 0.00 0.00 87 1010.9
20260506152540 49 16 0.9 5.2 0.00 0.00 0.00 87 1010.9
20260506151538 49 12 2.6 7.8 0.00 0.00 0.00 88 1010.8
20260506150535 49 49 3.5 9.6 0.00 0.00 0.00 88 1010.7
20260506145533 48 10 2.6 7.8 0.00 0.00 0.00 89 1010.6
20260506144530 48 21 2.6 7.8 0.00 0.00 0.00 91 1010.5
20260506143528 48 10 0.9 3.5 0.00 0.00 0.00 91 1010.6
20260506142525 48 25 1.7 5.2 0.00 0.00 0.00 91 1010.5
20260506141523 48 14 0.9 3.5 0.00 0.00 0.00 91 1010.5
20260506140520 48 10 1.7 6.1 0.00 0.00 0.00 91 1010.6
20260506135517 48 0 1.7 5.2 0.00 0.00 0.00 92 1010.5
20260506134615 48 1 0.9 3.5 0.00 0.00 0.00 92 1010.4
20260506133612 48 13 0.9 5.2 0.00 0.00 0.00 91 1010.6
20260506132610 48 16 1.7 7.0 0.00 0.00 0.00 91 1010.4
20260506131607 48 341 1.7 6.1 0.00 0.00 0.00 91 1010.4
20260506130604 48 13 1.7 7.0 0.00 0.00 0.00 90 1010.3
20260506125602 48 14 2.6 5.2 0.00 0.00 0.00 90 1010.2
20260506124559 48 26 2.6 6.1 0.00 0.00 0.00 91 1010.2
20260506123618 48 347 3.5 7.0 0.00 0.00 0.00 91 1010.2
20260506122554 48 27 1.7 6.1 0.00 0.00 0.00 91 1010.1
20260506121552 48 21 2.6 6.1 0.00 0.00 0.00 90 1010.1
20260506120549 48 16 3.5 9.6 0.00 0.00 0.00 90 1010.0
20260506115546 48 21 4.3 9.6 0.00 0.00 0.00 90 1010.0
20260506114544 48 8 5.2 13.9 0.00 0.00 0.00 91 1009.8
20260506113541 48 12 2.6 6.1 0.00 0.00 0.00 91 1009.9
20260506112539 48 18 2.6 7.0 0.00 0.00 0.00 90 1009.8
20260506111536 47 19 5.2 11.3 0.00 0.00 0.00 90 1009.8
20260506110534 47 29 5.2 11.3 0.00 0.00 0.00 90 1009.9
20260506105531 47 42 4.3 9.6 0.00 0.00 0.00 90 1009.8
20260506104529 47 41 4.3 12.2 0.00 0.00 0.00 90 1009.8
20260506103526 47 26 1.7 7.8 0.00 0.00 0.00 90 1009.8
20260506102523 47 15 2.6 7.8 0.00 0.00 0.00 90 1009.6
20260506101521 47 359 3.5 7.0 0.00 0.00 0.00 90 1009.5
20260506100518 47 19 4.3 9.6 0.00 0.00 0.00 90 1009.4
20260506095516 47 34 4.3 11.3 0.00 0.00 0.00 91 1009.4
20260506094613 47 19 4.3 9.6 0.00 0.00 0.00 91 1009.3
20260506093611 46 24 3.5 9.6 0.00 0.00 0.00 91 1009.3
20260506092608 46 53 3.5 11.3 0.00 0.00 0.00 91 1009.3
20260506091606 46 29 3.5 11.3 0.00 0.00 0.00 92 1009.2
20260506090603 46 43 4.3 13.0 0.00 0.00 0.00 93 1009.1
20260506085600 46 26 4.3 13.0 0.00 0.00 0.00 94 1009.1
20260506084557 46 4 3.5 7.0 0.00 0.00 0.00 94 1009.0
20260506083555 46 30 6.1 13.9 0.00 0.00 0.00 95 1009.0
20260506082552 46 359 5.2 13.0 0.00 0.00 0.00 95 1008.9
20260506081550 47 22 3.5 9.6 0.00 0.00 0.00 95 1008.9
20260506080547 47 15 2.6 9.6 0.00 0.00 0.00 95 1008.8
20260506072537 48 15 3.5 9.6 0.00 0.00 0.00 96 1008.5
20260506071534 48 12 2.6 6.1 0.00 0.00 0.00 96 1008.4
20260506070531 48 4 0.9 5.2 0.00 0.00 0.00 96 1008.4
20260506061519 47 2 0.9 7.8 0.00 0.00 0.00 96 1008.2
20260506060516 47 5 0.9 3.5 0.00 0.00 0.00 96 1008.2
20260506050601 47 19 1.7 6.1 0.00 0.00 0.00 95 1008.2
20260506044556 47 9 1.7 7.8 0.00 0.00 0.00 96 1008.1
20260506043553 47 14 0.9 3.5 0.00 0.00 0.00 95 1008.1
20260506042551 48 358 2.6 7.8 0.00 0.00 0.00 95 1008.1
20260506041548 48 7 1.7 3.5 0.00 0.00 0.00 95 1008.1
20260506040545 48 5 1.7 6.1 0.00 0.00 0.00 95 1008.1
20260506035543 48 343 1.7 6.1 0.00 0.00 0.00 95 1008.1
20260506034540 48 17 1.7 7.0 0.00 0.00 0.00 95 1008.1